GPS BIIRM-8 (PRN 05) (35752 NORAD) Tracking and Keplerian Element Data

This shows tracking and keplerian element data for the satellite.

Feedback or suggestion? Click here.




ElementValue
Catalog35752
NameGPS BIIRM-8 (PRN 05)
Epoch Orbit11976
Epoch Day354.09019108
Epoch Year2025
RAAN34.4932
Inclination56.096
Eccentricity0.0051646
Argument of Perigee81.7821
Mean Anonmoly251.1308
Mean Motion2.00565329
Decay Rate-6.1E-07
L11 35752U 09043A 25354.09019108 -.00000061 00000+0 00000+0 0 9991
L22 35752 56.0960 34.4932 0051646 81.7821 251.1308 2.00565329119760



Live tracking and technical data element details for GPS BIIRM-8 (PRN 05) (NORAD 35752). GPS BIIRM-8 (PRN 05) can be tracked NOW for your location showing map with azimuth and elevation plus other details from your city location.







IsCatalogInMostPopularTable: catalog: 35752, numindb: 679
Update: records affected: 1



GetName: 35752 GPS BIIRM-8 (PRN 05)

Hit Count: updated at: Sat, 07 Mar 2026 02:17:51 GMT